ISS
1 25544U 98067A 25260.12361477 .00008550 00000-0 15572-3 0 9997
2 25544 51.6329 211.3907 0004353 348.5756 11.5133 15.50345634529426


Ligne 0
Le nom commun de l'objetISS
Ligne 1
Numéro de catalogue satellite25544U
Désignateur international98067A
Année de lancement98
Numéro de lancement dans l'année067
Object du lancementA
Époque (année)25
Époque (Jour de l'année en UTC)260.12361477
1ère dérivée du mouvement moyen .00008550
2ème dérivée du mouvement moyen 00000-0
B * Terme de glissement 15572-3
Type de jeu d'éléments0
Numéro d'élément 999
Ligne 2
Numéro de catalogue satellite25544
Inclinaison de l'orbite (degrés) 51.6329
Ascension droite du nœud ascendant (degrés)211.3907
Excentricité0004353
Argument du Périgée (degrés)348.5756
Anomalie moyenne (degrés) 11.5133
Mouvement moyen (révolutions / jour)15.50345634
Numéro de révolution à l'époque52942
Valeurs déduites
Période Orbitale (en minutes)92.9 min.
Demi-grand axe (en kilomètres)6793.9 Km
Altitude à l‘Apogée (en kilomètres)425.8 Km
Altitude au Périgée (en kilomètres)419.9 Km

* Sources des TLE's : Celestrack